Date String (YYYY-MM-DD hh:mm:ss) UTC,Instrument flags,absolute air pressure of the measurement (hPa),sample flow rate (lpm),inlet stack bypass flow (lpm),air temperature of the measurement (°C),ambient temperature measured by the external sensor (°C),aerosol sample conditioner tube jacket temperature (°C),OPC LED temperature (°C),internal box temperature (°C),relative humidity of the measurement (%),span deviation,mass concentration of particles derived from Lorenz-Mie calculation of OPC scattering (μg/m³),mass concentration of particles derived from Lorenz-Mie calculation of OPC scattering (μg/m³),mass concentration of particles derived from Lorenz-Mie calculation of OPC scattering (μg/m³)
DateTimeUTC,F1_M11,P_M11,Q1_M11,Q2_M11,T1_M11,T2_M11,T3_M11,T4_M11,T5_M11,U1_M11,ZSPAN_M11,X0_M11,X2_M11,X1_M11
2023-09-30 02:00:00,SystemResetWarning,0828.6,5.00,000.00,028.2,024.9,000.0,036.5,029.8,16.5,0000.0,0022.89,0005.64,0003.99
2023-09-30 02:01:00,SystemResetWarning,0828.6,5.01,000.00,028.1,025.1,000.0,036.5,029.7,16.5,0000.0,0022.42,0005.64,0003.98
2023-09-30 02:02:00,SystemResetWarning,0828.5,5.00,000.00,028.1,025.5,000.0,036.5,029.7,16.5,0000.0,0022.11,0005.61,0003.97
2023-09-30 02:03:00,SystemResetWarning,0828.6,5.00,000.00,028.1,025.8,000.0,036.5,029.8,16.4,0000.0,0022.25,0005.60,0003.96
2023-09-30 02:04:00,SystemResetWarning,0828.6,5.00,000.00,028.1,026.2,000.0,036.6,029.9,16.3,0000.0,0021.29,0005.56,0003.95
2023-09-30 02:05:00,SystemResetWarning,0828.6,5.00,000.00,028.1,026.5,000.0,036.6,029.9,16.1,0000.0,0019.07,0005.48,0003.95
2023-09-30 02:06:00,SystemResetWarning,0828.6,5.00,000.00,028.2,026.7,000.0,036.6,030.0,16.2,0000.0,0019.61,0005.49,0003.95
2023-09-30 02:07:00,SystemResetWarning,0828.7,5.00,000.00,028.2,026.9,000.0,036.6,030.0,16.1,0000.0,0021.97,0005.52,0003.94
2023-09-30 02:08:00,SystemResetWarning,0828.7,5.00,000.00,028.3,027.1,000.0,036.6,030.1,16.2,0000.0,0022.44,0005.57,0003.93
2023-09-30 02:09:00,SystemResetWarning,0828.8,5.00,000.00,028.3,027.3,000.0,036.6,030.2,16.3,0000.0,0020.67,0005.52,0003.92
2023-09-30 02:10:00,SystemResetWarning,0828.8,4.99,000.00,028.3,026.7,000.0,036.6,030.2,16.4,0000.0,0020.10,0005.45,0003.93
2023-09-30 02:11:00,SystemResetWarning,0828.7,5.01,000.00,028.3,024.8,000.0,036.6,029.9,16.4,0000.0,0019.77,0005.43,0003.93
2023-09-30 02:12:00,SystemResetWarning,0828.7,5.00,000.00,028.2,023.8,000.0,036.5,029.7,16.5,0000.0,0019.54,0005.50,0003.95
2023-09-30 02:13:00,SystemResetWarning,0828.7,5.01,000.00,028.1,024.0,000.0,036.5,029.6,16.5,0000.0,0018.62,0005.49,0003.96
2023-09-30 02:14:00,SystemResetWarning,0828.7,5.01,000.00,028.0,024.4,000.0,036.5,029.5,16.6,0000.0,0018.03,0005.51,0003.97
2023-09-30 02:15:00,SystemResetWarning,0828.7,5.00,000.00,027.9,024.8,000.0,036.5,029.5,16.6,0000.0,0017.46,0005.52,0003.98
2023-09-30 02:16:00,SystemResetWarning,0828.7,5.00,000.00,027.9,025.3,000.0,036.5,029.6,16.6,0000.0,0017.18,0005.60,0003.98
2023-09-30 02:17:00,SystemResetWarning,0828.7,5.00,000.00,027.9,025.7,000.0,036.5,029.7,16.7,0000.0,0017.02,0005.63,0003.98
2023-09-30 02:18:00,SystemResetWarning,0828.7,4.99,000.00,028.0,026.0,000.0,036.5,029.7,16.6,0000.0,0015.57,0005.62,0003.98
2023-09-30 02:19:00,SystemResetWarning,0828.7,5.00,000.00,028.0,026.3,000.0,036.5,029.8,16.5,0000.0,0015.64,0005.61,0003.98
2023-09-30 02:20:00,SystemResetWarning,0828.7,5.01,000.00,028.0,026.6,000.0,036.5,029.9,16.4,0000.0,0016.26,0005.67,0003.99
2023-09-30 02:21:00,SystemResetWarning,0828.8,4.99,000.00,028.1,026.8,000.0,036.5,029.9,16.4,0000.0,0016.59,0005.67,0003.99
2023-09-30 02:22:00,SystemResetWarning,0828.8,4.99,000.00,028.1,027.0,000.0,036.5,030.0,16.4,0000.0,0017.46,0005.70,0003.99
2023-09-30 02:23:00,SystemResetWarning,0828.8,4.99,000.00,028.2,027.1,000.0,036.5,030.0,16.4,0000.0,0017.16,0005.65,0003.99
2023-09-30 02:24:00,SystemResetWarning,0828.8,5.00,000.00,028.2,027.3,000.0,036.6,030.1,16.4,0000.0,0018.03,0005.63,0003.98
2023-09-30 02:25:00,SystemResetWarning,0828.8,5.00,000.00,028.3,027.4,000.0,036.6,030.2,16.4,0000.0,0018.92,0005.64,0003.97
2023-09-30 02:26:00,SystemResetWarning,0828.8,5.00,000.00,028.3,027.5,000.0,036.6,030.2,16.4,0000.0,0019.40,0005.59,0003.96
2023-09-30 02:27:00,SystemResetWarning,0828.8,4.99,000.00,028.4,026.9,000.0,036.6,030.2,16.4,0000.0,0019.49,0005.60,0003.96
2023-09-30 02:28:00,SystemResetWarning,0828.8,5.01,000.00,028.3,025.2,000.0,036.6,030.0,16.5,0000.0,0019.45,0005.57,0003.96
2023-09-30 02:29:00,SystemResetWarning,0828.8,5.01,000.00,028.3,024.8,000.0,036.6,029.9,16.6,0000.0,0019.50,0005.52,0003.96
2023-09-30 02:30:00,SystemResetWarning,0828.8,5.00,000.00,028.2,024.9,000.0,036.6,029.8,16.7,0000.0,0019.01,0005.52,0003.96
2023-09-30 02:31:00,SystemResetWarning,0828.8,5.00,000.00,028.1,025.3,000.0,036.6,029.7,16.8,0000.0,0018.89,0005.44,0003.96
2023-09-30 02:32:00,SystemResetWarning,0828.9,5.00,000.00,028.1,025.6,000.0,036.6,029.8,16.9,0000.0,0018.24,0005.40,0003.94
2023-09-30 02:33:00,SystemResetWarning,0828.9,4.99,000.00,028.1,026.0,000.0,036.6,029.9,16.9,0000.0,0016.90,0005.37,0003.93
2023-09-30 02:34:00,SystemResetWarning,0829.0,4.99,000.00,028.2,026.3,000.0,036.6,029.9,17.0,0000.0,0017.79,0005.35,0003.90
2023-09-30 02:35:00,SystemResetWarning,0829.0,5.00,000.00,028.2,026.6,000.0,036.6,030.0,17.0,0000.0,0018.02,0005.34,0003.89
2023-09-30 02:36:00,SystemResetWarning,0829.0,5.00,000.00,028.2,026.8,000.0,036.6,030.0,17.0,0000.0,0016.63,0005.30,0003.88
2023-09-30 02:37:00,SystemResetWarning,0828.9,5.01,000.00,028.3,027.0,000.0,036.7,030.1,17.0,0000.0,0015.83,0005.35,0003.88
2023-09-30 02:38:00,SystemResetWarning,0828.9,5.00,000.00,028.3,027.2,000.0,036.7,030.2,17.0,0000.0,0015.55,0005.30,0003.86
2023-09-30 02:39:00,SystemResetWarning,0828.9,5.00,000.00,028.3,027.3,000.0,036.7,030.2,17.0,0000.0,0015.23,0005.21,0003.84
2023-09-30 02:40:00,SystemResetWarning,0828.9,4.99,000.00,028.4,027.2,000.0,036.7,030.3,17.0,0000.0,0014.16,0005.15,0003.82
2023-09-30 02:41:00,SystemResetWarning,0828.9,4.99,000.00,028.4,025.6,000.0,036.7,030.1,17.0,0000.0,0013.63,0005.14,0003.81
2023-09-30 02:42:00,SystemResetWarning,0829.0,5.00,000.00,028.3,024.8,000.0,036.6,030.0,17.0,0000.0,0013.94,0005.08,0003.78
2023-09-30 02:43:00,SystemResetWarning,0828.9,5.01,000.00,028.3,024.9,000.0,036.6,029.8,17.1,0000.0,0015.33,0005.06,0003.77
2023-09-30 02:44:00,SystemResetWarning,0829.0,5.01,000.00,028.2,025.2,000.0,036.6,029.8,17.2,0000.0,0016.20,0005.00,0003.75
2023-09-30 02:45:00,SystemResetWarning,0829.0,5.00,000.00,028.2,025.6,000.0,036.7,029.8,17.3,0000.0,0016.02,0005.00,0003.74
2023-09-30 02:46:00,SystemResetWarning,0829.0,5.00,000.00,028.2,025.9,000.0,036.7,029.9,17.2,0000.0,0015.24,0005.01,0003.74
2023-09-30 02:47:00,SystemResetWarning,0829.0,5.00,000.00,028.2,026.2,000.0,036.7,029.9,17.2,0000.0,0016.12,0005.00,0003.74
2023-09-30 02:48:00,SystemResetWarning,0828.9,4.99,000.00,028.2,026.5,000.0,036.7,030.0,17.2,0000.0,0017.20,0004.96,0003.73
2023-09-30 02:49:00,SystemResetWarning,0829.0,5.00,000.00,028.2,026.8,000.0,036.7,030.0,17.2,0000.0,0017.88,0005.00,0003.74
2023-09-30 02:50:00,SystemResetWarning,0828.9,5.00,000.00,028.3,027.0,000.0,036.7,030.1,17.2,0000.0,0019.23,0005.03,0003.74
2023-09-30 02:51:00,SystemResetWarning,0829.0,5.00,000.00,028.3,027.1,000.0,036.7,030.1,17.2,0000.0,0019.70,0005.07,0003.75
2023-09-30 02:52:00,SystemResetWarning,0829.0,5.00,000.00,028.4,027.3,000.0,036.7,030.2,17.1,0000.0,0019.62,0005.04,0003.73
2023-09-30 02:53:00,SystemResetWarning,0829.0,4.99,000.00,028.4,026.9,000.0,036.7,030.2,17.1,0000.0,0018.98,0005.03,0003.74
2023-09-30 02:54:00,SystemResetWarning,0829.0,4.99,000.00,028.4,024.9,000.0,036.7,030.0,17.2,0000.0,0017.23,0005.05,0003.75
2023-09-30 02:55:00,SystemResetWarning,0828.9,5.00,000.00,028.3,023.7,000.0,036.6,029.8,17.2,0000.0,0016.70,0005.09,0003.76
2023-09-30 02:56:00,SystemResetWarning,0828.9,5.01,000.00,028.2,023.8,000.0,036.6,029.6,17.4,0000.0,0016.32,0005.11,0003.77
2023-09-30 02:57:00,SystemResetWarning,0828.9,4.99,000.00,028.1,024.2,000.0,036.6,029.5,17.6,0000.0,0016.18,0005.05,0003.76
2023-09-30 02:58:00,SystemResetWarning,0828.8,5.00,000.00,028.0,024.6,000.0,036.6,029.5,17.6,0000.0,0015.22,0005.01,0003.76
2023-09-30 02:59:00,SystemResetWarning,0828.8,5.01,000.00,028.0,025.1,000.0,036.6,029.6,17.7,0000.0,0015.12,0005.03,0003.76
